Flag for U.S.A. Weather past 2 weeks in Cape Canaveral, Florida, U.S.A.

Now
78 °F

Clear.


Feels Like: 80 °F
Forecast: 76 / 84 °F
Wind: 3 mph from Northeast

Location: Cape Kennedy

Current Time: Oct 2, 2014 at 5:14:02 AM

Latest Report: Oct 2, 2014 at 3:58 AM


Visibility: 10 mi

Pressure: 29.96 "Hg

Humidity: 89%

Dew point: 74 °F

Location of Cape CanaveralLocation

Historic Weather in Cape Canaveral — Graph

°F

Cape Canaveral temperature yesterday

Maximum temperature yesterday: 84 °F (at 2:58 PM)
Minimum temperature yesterday: 73 °F (at 7:03 AM)
Average temperature yesterday: 78 °F

Past Weeks' High & Low Weather Summary

 TemperatureHumidityPressure
High87 °F (Sep 27, 1:58 PM)100% (Sep 26, 11:48 PM)30.10 "Hg (Sep 26, 11:48 PM)
Low71 °F (Sep 22, 6:58 PM)63% (Sep 17, 12:58 PM)29.80 "Hg (Sep 30, 4:03 PM)
Average78 °F86%29.96 "Hg
* Reported Sep 17 3:58 AM — Oct 2 3:58 AM, Cape Canaveral, Weather by CustomWeather, © 2014

Note: Actual official high and low records may vary slightly from our data, if they occured in-between our weather recording intervals... More about our weather records

Advertising

Cape Canaveral weather history for previous 24 hours

 ConditionsComfort  
Time TempWeatherWind HumidityBarometerVisibility
3:58 AM
Oct 2
78 °FClear.3 mph89%29.96 "Hg10 mi
2:58 AM78 °FClear.3 mph90%29.96 "Hg10 mi
1:58 AM78 °FClear.5 mph90%29.96 "Hg10 mi
12:58 AM78 °FClear.5 mph89%29.96 "Hg10 mi
11:58 PM
Oct 1
79 °FPassing clouds.3 mph87%29.98 "Hg10 mi
10:58 PM78 °FClear.3 mph87%29.99 "Hg10 mi
9:58 PM80 °FPassing clouds.7 mph86%29.97 "Hg10 mi
8:58 PM80 °FPassing clouds.5 mph86%29.95 "Hg10 mi
7:58 PM79 °FSunny.5 mph86%29.92 "Hg10 mi
6:58 PM80 °FSunny.7 mph81%29.91 "Hg10 mi
5:58 PM80 °FSunny.9 mph79%29.92 "Hg10 mi
4:58 PM81 °FPassing clouds.7 mph82%29.91 "Hg10 mi
3:58 PM83 °FSunny.9 mph78%29.90 "Hg10 mi
2:58 PM84 °FSunny.9 mph72%29.91 "Hg10 mi
1:58 PM82 °FSunny.3 mph81%29.92 "Hg10 mi
12:58 PM79 °FSunny.7 mph89%29.94 "Hg10 mi
11:58 AM82 °FSunny.9 mph84%29.95 "Hg10 mi
10:58 AM82 °FPassing clouds.2 mph83%29.96 "Hg10 mi
9:58 AM80 °FSunny.3 mph86%29.94 "Hg10 mi
8:58 AM78 °FSunny.5 mph92%29.92 "Hg10 mi
7:58 AM75 °FClear.3 mph96%29.91 "Hg10 mi
7:03 AM73 °FClear.2 mph100%29.88 "Hg9 mi
6:48 AM75 °FClear.2 mph94%29.88 "Hg10 mi
5:58 AM75 °FClear.2 mph97%29.87 "Hg10 mi
Weather by CustomWeather, © 2014

See weather overviewHow to use our weather pages